Home > Weather > Phuket > Past weeks

Flag for Thailand Past Weather in Phuket, Thailand — Yesterday and Last 2 Weeks

Now
79 °F

Passing clouds.


Feels Like: 82 °F
Forecast: 79 / 87 °F
Wind: 1 mph from North

Location: Phuket Airport

Current Time: Jul 30, 2016 at 12:54:57 AM

Latest Report: Jul 30, 2016 at 12:30 AM


Visibility: 4 mi

Pressure: 29.86 "Hg

Humidity: 89%

Dew Point: 75 °F

Location of PhuketLocation

Past Weather in Phuket — Graph

°F

Phuket Temperature Yesterday

Maximum temperature yesterday: 86 °F (at 2:30 PM)
Minimum temperature yesterday: 73 °F (at 6:30 AM)
Average temperature yesterday: 81 °F

High & Low Weather Summary for the Past Weeks

 TemperatureHumidityPressure
High90 °F (Jul 16, 12:30 PM)94% (Jul 14, 11:30 PM)29.95 "Hg (Jul 14, 11:30 PM)
Low72 °F (Jul 28, 1:00 PM)55% (Jul 23, 3:00 PM)29.77 "Hg (Jul 15, 4:00 PM)
Average81 °F80%29.85 "Hg
* Reported Jul 14 11:00 PM — Jul 29 11:30 PM, Phuket, Weather by CustomWeather, © 2016

Note: Actual official high and low records may vary slightly from our data, if they occured in-between our weather recording intervals... More about our weather records

Advertising

Phuket Weather History for the Previous 24 Hours

Scroll right to see more
 ConditionsComfort  
Time TempWeatherWind HumidityBarometerVisibility
11:30 PM
Fri, Jul 29
79 °FPassing clouds.2 mph89%29.89 "Hg5 mi
11:00 PM81 °FPassing clouds.2 mph84%29.89 "Hg5 mi
10:30 PM79 °FPartly cloudy.1 mph89%29.86 "Hg5 mi
10:00 PM81 °FPartly cloudy.No wind84%29.86 "Hg5 mi
9:30 PM82 °FPartly cloudy.5 mph74%29.86 "Hg5 mi
9:00 PM77 °FPartly cloudy.8 mph89%29.86 "Hg5 mi
8:30 PM84 °FPartly cloudy.9 mph70%29.83 "Hg5 mi
8:00 PM82 °FPartly cloudy.8 mph74%29.83 "Hg6 mi
7:30 PM84 °FPartly cloudy.10 mph70%29.80 "Hg5 mi
7:00 PM84 °FPartly cloudy.10 mph70%29.80 "Hg5 mi
6:30 PM84 °FBroken clouds.12 mph70%29.80 "Hg6 mi
6:00 PM84 °FScattered clouds.10 mph70%29.80 "Hg6 mi
5:30 PM84 °FPartly sunny.8 mph74%29.80 "Hg6 mi
5:00 PM84 °FBroken clouds.9 mph74%29.80 "Hg6 mi
4:30 PM86 °FBroken clouds.8 mph70%29.80 "Hg6 mi
4:00 PM86 °FBroken clouds.9 mph75%29.80 "Hg6 mi
3:30 PM84 °FScattered clouds.9 mph74%29.80 "Hg6 mi
3:00 PM86 °FBroken clouds.8 mph70%29.80 "Hg6 mi
2:30 PM86 °FPartly sunny.7 mph70%29.83 "Hg6 mi
2:00 PM84 °FPartly sunny.9 mph74%29.83 "Hg6 mi
1:30 PM84 °FPartly sunny.8 mph70%29.83 "Hg6 mi
1:00 PM84 °FPartly sunny.8 mph70%29.86 "Hg6 mi
12:30 PM82 °FPartly sunny.7 mph74%29.86 "Hg6 mi
12:00 PM82 °FPartly sunny.6 mph74%29.86 "Hg6 mi
11:30 AM82 °FPartly sunny.8 mph74%29.89 "Hg6 mi
11:00 AM82 °FPartly sunny.5 mph74%29.89 "Hg6 mi
10:30 AM82 °FScattered clouds.2 mph74%29.89 "Hg5 mi
10:00 AM82 °FBroken clouds.5 mph74%29.89 "Hg6 mi
9:30 AM81 °FBroken clouds.5 mph79%29.89 "Hg6 mi
9:00 AM79 °FBroken clouds.5 mph84%29.89 "Hg6 mi
8:30 AM79 °FPartly sunny.2 mph84%29.89 "Hg6 mi
8:00 AM75 °FBroken clouds.2 mph89%29.89 "Hg5 mi
7:30 AM75 °FBroken clouds.1 mph89%29.86 "Hg5 mi
7:00 AM75 °FLight rain. Broken clouds.1 mph89%29.86 "Hg4 mi
6:30 AM73 °FLight rain. Broken clouds.8 mph89%29.86 "Hg4 mi
6:00 AM75 °FLight rain. Partly cloudy.3 mph89%29.86 "Hg4 mi
5:30 AM75 °FLight rain. Partly cloudy.5 mph89%29.83 "Hg4 mi
5:00 AM77 °FHeavy rain. Partly cloudy.5 mph83%29.86 "Hg1 mi
4:30 AM79 °FRain. Partly cloudy.3 mph79%29.83 "Hg3 mi
4:00 AM79 °FPassing clouds.8 mph79%29.83 "Hg5 mi
3:30 AM79 °FPassing clouds.3 mph84%N/A5 mi
3:00 AM79 °FPassing clouds.6 mph84%29.83 "Hg5 mi
2:30 AM79 °FPassing clouds.10 mph84%29.83 "Hg5 mi
2:00 AM79 °FPartly cloudy.2 mph84%29.83 "Hg5 mi
1:30 AM79 °FPartly cloudy.12 mph79%29.83 "Hg5 mi
1:00 AM81 °FLight rain. Partly cloudy.8 mph79%29.86 "Hg4 mi
12:30 AM81 °FPartly cloudy.10 mph79%29.86 "Hg5 mi
12:00 AM79 °FPartly cloudy.3 mph84%29.86 "Hg5 mi
Weather by CustomWeather, © 2016

See weather overviewHow to use our weather pages